Regional Weather Roundup
Issued by NWS Nashville, TN

Home | Current Version | Previous Version | Text Only | Print | Product List | Glossary On
Versions: 1 2 3 4 5 6 7 8 9 10 11 12 13 14 15 16 17 18 19 20 21 22 23 24 25 26 27 28 29 30 31 32 33 34 35 36 37 38 39 40 41 42 43 44 45 46 47 48 49 50
000
ASUS44 KOHX 041510
RWROHX
MIDDLE TENNESSEE HOURLY WEATHER ROUNDUP
NATIONAL WEATHER SERVICE NASHVILLE TN
900 AM CST SUN DEC 04 2016

NOTE: "FAIR" INDICATES FEW OR NO CLOUDS BELOW 12,000 FEET WITH
NO SIGNIFICANT WEATHER AND/OR OBSTRUCTIONS TO VISIBILITY.

* THESE REPORTS ARE NOT UNDER NWS QUALITY CONTROL AND MAY NOT
  REPORT WEATHER SUCH AS PRECIPITATION AND FOG.


TNZ005>011-023>034-057-059-062>066-078-080-041600
...NORTHERN MIDDLE TENNESSEE...

CITY           SKY/WX    TMP DP  RH WIND       PRES   REMARKS
CLARKSVILLE    CLOUDY    43  40  89 SE6       30.04R
CROSSVILLE     CLOUDY    39  37  92 E5        30.09F
LEBANON        CLOUDY    43  42  96 SE6       30.04F
NASHVILLE      DRIZZLE   44  42  93 SE9       30.06S
PORTLAND       CLOUDY    43  43 100 SE7       30.04F
SMYRNA         LGT RAIN  44  43  96 SE10      30.07F FOG
SPRINGFIELD    CLOUDY    43  41  93 VRB6      30.02F
WEST NASHVILLE MOSUNNY   41  41 100 CALM      30.04F
$$
TNZ056-058-060-061-075>077-079-093>097-041600
...SOUTHERN MIDDLE TENNESSEE...

CITY           SKY/WX    TMP DP  RH WIND       PRES   REMARKS
COLUMBIA         N/A    N/A N/A N/A E3        30.02S
FAYETTEVILLE   CLOUDY    45  45 100 E8        30.05F FOG
MCMINNVILLE    CLOUDY    43  43 100 E3        30.07R
MURFREESBORO   CLOUDY    44  43  97 SE6       30.05
SHELBYVILLE    PTSUNNY   46  46 100 SE7       30.06S
TULLAHOMA      CLOUDY    43  43 100 CALM      30.08R
WINCHESTER     CLOUDY    45  43  93 SE14      30.07R
$$


...KEY TO REMARKS...
VSB - VISIBILITY IN MILES
WCI - WIND CHILL INDEX
HX  - HEAT INDEX




USA.gov is the U.S. government's official web portal to all federal, state and local government web resources and services.